Weather History for KGLH - February, 2013

Change the Weather History Date:

Saturday, February 23, 2013

  Actual Average Record
Temperature  
Mean Temperature 44 °F 49 °F  
Max Temperature 53 °F 59 °F 82 °F (1930)
Min Temperature 35 °F 39 °F 18 °F (1989)
Degree Days  
Heating Degree Days 21 16  
Month to date heating degree days 399 444  
Since 1 July heating degree days 1915 2233  
Cooling Degree Days 0 0  
Month to date cooling degree days 0 0  
Year to date cooling degree days 10 1  
Moisture  
Dew Point 35 °F    
Average Humidity 73    
Maximum Humidity 92    
Minimum Humidity 54    
Precipitation  
Precipitation 0.00 in 0.16 in 2.72 in (1975)
Month to date precipitation 2.37 4.31  
Year to date precipitation 11.48 9.28  
Sea Level Pressure  
Sea Level Pressure 30.04 in    
Wind  
Wind Speed 9 mph (NNE)    
Max Wind Speed 14 mph    
Max Gust Speed 20 mph    
Visibility 10 miles    
Events      
T = Trace of Precipitation, MM = Missing Value Source: NWS Daily Summary

Daily Weather History Graph

Daily Weather History Graph

Search for Another Location

Airport or City:

Trip Planner

Search our weather history database for the weather conditions in past years. The results will help you decide how hot, cold, wet, or windy it might be!

Date:

Astronomy

Feb. 23, 2013 Rise Set
Actual Time 6:39 AM CST 5:55 PM CST
Civil Twilight 6:13 AM CST 6:21 PM CST
Nautical Twilight 5:45 AM CST 6:49 PM CST
Astronomical Twilight 5:16 AM CST 7:18 PM CST
Moon 4:09 PM CST (2/23) 4:57 AM CST (2/23)
Length of Visible Light 12h 07m
Length of Day
11h 16m
Waxing Gibbous, 95% of the Moon is Illuminated
Feb 23
Waxing Gibbous
Feb 25
Full
Mar 4
Last Quarter
Mar 11
New
Mar 19
First Quarter

Hourly Weather History & Observations

Time (CST) Temp. Windchill Dew Point Humidity Pressure Visibility Wind Dir Wind Speed Gust Speed Precip Events Conditions
12:53 AM 44.1 °F 39.0 °F 39.0 °F 82% 30.07 in 10.0 mi North 9.2 mph - N/A   Overcast
1:53 AM 42.1 °F 37.7 °F 37.9 °F 85% 30.06 in 10.0 mi NNE 6.9 mph - N/A   Mostly Cloudy
2:53 AM 39.9 °F 33.9 °F 37.0 °F 89% 30.04 in 10.0 mi NNE 9.2 mph - N/A   Partly Cloudy
3:53 AM 39.0 °F 32.8 °F 36.0 °F 89% 30.04 in 10.0 mi NNE 9.2 mph - N/A   Clear
4:53 AM 37.0 °F 29.3 °F 33.1 °F 86% 30.03 in 10.0 mi NNE 11.5 mph - N/A   Clear
5:53 AM 36.0 °F 28.0 °F 30.9 °F 82% 30.04 in 10.0 mi NNE 11.5 mph - N/A   Clear
6:53 AM 35.1 °F 26.9 °F 30.9 °F 85% 30.05 in 10.0 mi NNE 11.5 mph - N/A   Clear
7:53 AM 37.0 °F 29.3 °F 30.9 °F 79% 30.07 in 10.0 mi NNE 11.5 mph - N/A   Clear
8:53 AM 39.0 °F 31.4 °F 30.9 °F 73% 30.10 in 10.0 mi NNE 12.7 mph - N/A   Clear
9:53 AM 39.9 °F 32.9 °F 32.0 °F 73% 30.09 in 10.0 mi NNE 11.5 mph - N/A   Clear
10:53 AM 44.1 °F 39.0 °F 34.0 °F 68% 30.08 in 10.0 mi NNE 9.2 mph - N/A   Clear
11:53 AM 45.0 °F 40.1 °F 35.1 °F 68% 30.06 in 10.0 mi North 9.2 mph - N/A   Clear
12:53 PM 48.0 °F - 37.0 °F 66% 30.03 in 10.0 mi North 12.7 mph - N/A   Clear
1:53 PM 50.0 °F - 37.0 °F 61% 30.01 in 10.0 mi NNE 8.1 mph - N/A   Clear
2:53 PM 52.0 °F - 37.0 °F 57% 29.99 in 10.0 mi North 9.2 mph - N/A   Clear
3:53 PM 52.0 °F - 37.9 °F 59% 29.98 in 10.0 mi NNE 11.5 mph - N/A   Clear
4:53 PM 52.0 °F - 36.0 °F 54% 30.00 in 10.0 mi North 9.2 mph - N/A   Clear
5:53 PM 46.9 °F - 37.0 °F 68% 30.02 in 10.0 mi NNE 4.6 mph - N/A   Partly Cloudy
6:53 PM 46.9 °F - 37.9 °F 71% 30.02 in 10.0 mi Calm Calm - N/A   Partly Cloudy
7:53 PM 42.1 °F 39.2 °F 37.0 °F 82% 30.01 in 10.0 mi North 4.6 mph - N/A   Clear
8:53 PM 42.1 °F 39.2 °F 35.1 °F 76% 30.02 in 10.0 mi NE 4.6 mph - N/A   Clear
9:53 PM 39.9 °F 35.1 °F 35.1 °F 83% 30.03 in 10.0 mi NNE 6.9 mph - N/A   Clear
10:53 PM 39.9 °F 35.8 °F 35.1 °F 83% 30.03 in 10.0 mi NNE 5.8 mph - N/A   Clear
11:53 PM 37.0 °F 33.3 °F 33.1 °F 86% 30.04 in 10.0 mi NNE 4.6 mph - N/A   Clear